Weather History for Melfa, VA

Change the Weather History Date:

Friday, February 1, 2013

  Actual Average (KWAL) Record (KWAL)
Temperature  
Mean Temperature 35 °F 37 °F  
Max Temperature 42 °F 45 °F 79 °F (2002)
Min Temperature 26 °F 29 °F 11 °F (1971)
Degree Days  
Heating Degree Days 30    
Month to date heating degree days  
Since 1 July heating degree days  
Cooling Degree Days 0    
Month to date cooling degree days  
Year to date cooling degree days  
Moisture  
Dew Point 15 °F    
Average Humidity 47    
Maximum Humidity 70    
Minimum Humidity 32    
Precipitation  
Precipitation 0.00 in 0.10 in 0.87 in (2008)
Month to date precipitation 0.10  
Year to date precipitation 3.14  
Sea Level Pressure  
Sea Level Pressure 30.08 in    
Wind  
Wind Speed 13 mph (WNW)    
Max Wind Speed 33 mph    
Max Gust Speed 44 mph    
Visibility 10 miles    
Events      
T = Trace of Precipitation, MM = Missing Value Source: NWS Daily Summary

Daily Weather History Graph

Daily Weather History Graph

Search for Another Location

Airport:

Trip Planner

Search our weather history database for the weather conditions in past years. The results will help you decide how hot, cold, wet, or windy it might be!

Date:

Astronomy

Feb. 01, 2013 Rise Set
Actual Time 7:06 AM EST 5:27 PM EST
Civil Twilight 6:39 AM EST 5:54 PM EST
Nautical Twilight 6:07 AM EST 6:26 PM EST
Astronomical Twilight 5:36 AM EST 6:56 PM EST
Moon 11:23 PM EST (2/1) 9:46 AM EST (2/1)
Length of Visible Light 11h 15m
Length of Day
10h 20m
Waning Gibbous, 70% of the Moon is Illuminated
Feb 1
Waning Gibbous
Feb 3
Last Quarter
Feb 10
New
Feb 17
First Quarter
Feb 25
Full

Hourly Weather History & Observations

Time (EST) Temp. Windchill Dew Point Humidity Pressure Visibility Wind Dir Wind Speed Gust Speed Precip Events Conditions
12:16 AM 39.2 °F 33.6 °F 17.6 °F 42% 29.96 in 10.0 mi West 8.1 mph - N/A   Clear
12:36 AM 39.2 °F 33.6 °F 17.6 °F 42% 29.97 in 10.0 mi West 8.1 mph - N/A   Clear
12:56 AM 39.2 °F 33.0 °F 19.4 °F 45% 29.97 in 10.0 mi West 9.2 mph - N/A   Clear
1:16 AM 39.2 °F 32.5 °F 17.6 °F 42% 29.96 in 10.0 mi West 10.4 mph 16.1 mph N/A   Clear
1:37 AM 37.4 °F 30.8 °F 17.6 °F 45% 29.97 in 10.0 mi West 9.2 mph - N/A   Clear
1:56 AM 37.4 °F 32.1 °F 17.6 °F 45% 29.97 in 10.0 mi West 6.9 mph - N/A   Clear
2:16 AM 37.4 °F 32.8 °F 19.4 °F 48% 29.97 in 10.0 mi WSW 5.8 mph - N/A   Clear
2:36 AM 37.4 °F 33.8 °F 19.4 °F 48% 29.97 in 10.0 mi WSW 4.6 mph - N/A   Clear
2:56 AM 33.8 °F 30.8 °F 21.2 °F 60% 29.94 in 10.0 mi SSW 3.5 mph - N/A   Scattered Clouds
3:16 AM 32.0 °F 27.5 °F 23.0 °F 69% 29.93 in 10.0 mi South 4.6 mph - N/A   Clear
3:36 AM 33.8 °F 28.6 °F 21.2 °F 60% 29.92 in 10.0 mi SSE 5.8 mph - N/A   Clear
3:56 AM 33.8 °F 30.8 °F 21.2 °F 60% 29.88 in 10.0 mi ESE 3.5 mph - N/A   Clear
4:16 AM 32.0 °F 27.5 °F 21.2 °F 64% 29.87 in 10.0 mi SE 4.6 mph - N/A   Clear
4:36 AM 33.8 °F 29.6 °F 21.2 °F 60% 29.86 in 10.0 mi SSE 4.6 mph - N/A   Unknown
4:56 AM 33.8 °F 28.6 °F 21.2 °F 60% 29.86 in 10.0 mi SSE 5.8 mph - N/A   Mostly Cloudy
5:16 AM 35.6 °F 30.7 °F 24.8 °F 65% 29.84 in 10.0 mi South 5.8 mph - N/A   Overcast
5:36 AM 37.4 °F 33.8 °F 24.8 °F 60% 29.84 in 10.0 mi South 4.6 mph - N/A   Overcast
5:56 AM 39.2 °F 32.5 °F 26.6 °F 61% 29.82 in 10.0 mi South 10.4 mph 17.3 mph N/A   Overcast
6:16 AM 41.0 °F 35.2 °F 26.6 °F 57% 29.82 in 10.0 mi South 9.2 mph - N/A   Overcast
6:36 AM 41.0 °F 35.8 °F 24.8 °F 53% 29.81 in 10.0 mi SSW 8.1 mph - N/A   Overcast
6:56 AM 41.0 °F 35.2 °F 24.8 °F 53% 29.81 in 10.0 mi SW 9.2 mph - N/A   Overcast
7:19 AM 42.8 °F 35.4 °F 26.6 °F 53% 29.83 in 10.0 mi WSW 15.0 mph 21.9 mph N/A   Overcast
7:38 AM 42.8 °F 35.1 °F 28.4 °F 57% 29.84 in 10.0 mi West 16.1 mph 21.9 mph N/A   Overcast
7:58 AM 42.8 °F 32.7 °F 26.6 °F 53% 29.86 in 10.0 mi West 27.6 mph 36.8 mph N/A   Overcast
8:17 AM 41.0 °F 34.3 °F 28.4 °F 61% 29.87 in 10.0 mi West 11.5 mph 24.2 mph N/A   Overcast
8:37 AM 39.2 °F 28.3 °F 26.6 °F 61% 29.89 in 10.0 mi WNW 25.3 mph 35.7 mph N/A   Overcast
8:57 AM 37.4 °F 25.4 °F 26.6 °F 65% 29.92 in 10.0 mi WNW 27.6 mph 33.4 mph N/A   Overcast
9:17 AM 35.6 °F 23.0 °F 26.6 °F 70% 29.95 in 10.0 mi WNW 27.6 mph 39.1 mph N/A   Overcast
9:36 AM 35.6 °F 23.2 °F 23.0 °F 60% 29.98 in 10.0 mi NW 26.5 mph 43.7 mph N/A   Overcast
9:55 AM 35.6 °F 23.7 °F 19.4 °F 52% 29.99 in 10.0 mi NW 24.2 mph 41.4 mph N/A   Overcast
10:16 AM 35.6 °F 21.9 °F 17.6 °F 48% 29.99 in 10.0 mi NW 33.4 mph 41.4 mph N/A   Mostly Cloudy
10:36 AM 35.6 °F 24.2 °F 17.6 °F 48% 30.01 in 10.0 mi NW 21.9 mph 33.4 mph N/A   Overcast
11:16 AM 35.6 °F 24.8 °F 15.8 °F 44% 30.03 in 10.0 mi NW 19.6 mph 33.4 mph N/A   Mostly Cloudy
11:36 AM 35.6 °F 22.7 °F 15.8 °F 44% 30.05 in 10.0 mi WNW 28.8 mph 36.8 mph N/A   Mostly Cloudy
11:56 AM 33.8 °F 22.8 °F 14.0 °F 44% 30.06 in 10.0 mi NW 18.4 mph 35.7 mph N/A   Mostly Cloudy
12:16 PM 35.6 °F 24.5 °F 15.8 °F 44% 30.07 in 10.0 mi NW 20.7 mph 38.0 mph N/A   Scattered Clouds
12:36 PM 35.6 °F 22.7 °F 14.0 °F 41% 30.08 in 10.0 mi NW 28.8 mph 38.0 mph N/A   Clear
12:55 PM 35.6 °F 22.1 °F 14.0 °F 41% 30.08 in 10.0 mi NW 32.2 mph 41.4 mph N/A   Scattered Clouds
1:15 PM 35.6 °F 24.2 °F 12.2 °F 38% 30.10 in 10.0 mi NW 21.9 mph 39.1 mph N/A   Scattered Clouds
1:37 PM 33.8 °F 21.9 °F 12.2 °F 41% 30.10 in 10.0 mi NNW 21.9 mph 40.3 mph N/A   Scattered Clouds
1:55 PM 33.8 °F 21.6 °F 12.2 °F 41% 30.12 in 10.0 mi NW 23.0 mph 35.7 mph N/A   Clear
2:16 PM 33.8 °F 21.9 °F 8.6 °F 35% 30.12 in 10.0 mi NW 21.9 mph 38.0 mph N/A   Clear
2:36 PM 33.8 °F 20.5 °F 6.8 °F 32% 30.13 in 10.0 mi NW 27.6 mph 38.0 mph N/A   Clear
2:56 PM 33.8 °F 22.2 °F 6.8 °F 32% 30.15 in 10.0 mi NW 20.7 mph 36.8 mph N/A   Clear
3:16 PM 33.8 °F 21.0 °F 6.8 °F 32% 30.15 in 10.0 mi NW 25.3 mph 35.7 mph N/A   Clear
3:36 PM 33.8 °F 20.8 °F 8.6 °F 35% 30.17 in 10.0 mi NW 26.5 mph 34.5 mph N/A   Clear
3:57 PM 33.8 °F 21.6 °F 8.6 °F 35% 30.18 in 10.0 mi NW 23.0 mph 33.4 mph N/A   Clear
4:16 PM 32.0 °F 19.2 °F 6.8 °F 35% 30.19 in 10.0 mi NW 23.0 mph 35.7 mph N/A   Clear
4:36 PM 32.0 °F 20.1 °F 6.8 °F 35% 30.20 in 10.0 mi NW 19.6 mph 31.1 mph N/A   Clear
4:56 PM 30.2 °F 17.8 °F 6.8 °F 37% 30.22 in 10.0 mi NW 19.6 mph 28.8 mph N/A   Clear
5:16 PM 30.2 °F 18.5 °F 6.8 °F 37% 30.22 in 10.0 mi NW 17.3 mph 26.5 mph N/A   Clear
5:36 PM 30.2 °F 18.9 °F 8.6 °F 40% 30.24 in 10.0 mi NW 16.1 mph 26.5 mph N/A   Clear
5:55 PM 30.2 °F 20.2 °F 8.6 °F 40% 30.24 in 10.0 mi NW 12.7 mph 23.0 mph N/A   Scattered Clouds
6:16 PM 30.2 °F 19.8 °F 8.6 °F 40% 30.26 in 10.0 mi NW 13.8 mph 20.7 mph N/A   Clear
6:36 PM 30.2 °F 18.9 °F 8.6 °F 40% 30.27 in 10.0 mi NW 16.1 mph 20.7 mph N/A   Clear
6:57 PM 30.2 °F 21.3 °F 8.6 °F 40% 30.28 in 10.0 mi NW 10.4 mph 20.7 mph N/A   Clear
7:15 PM 30.2 °F 21.3 °F 8.6 °F 40% 30.28 in 10.0 mi NW 10.4 mph 20.7 mph N/A   Clear
7:35 PM 30.2 °F 23.4 °F 8.6 °F 40% 30.29 in 10.0 mi NW 6.9 mph - N/A   Clear
7:56 PM 30.2 °F 20.8 °F 6.8 °F 37% 30.30 in 10.0 mi NW 11.5 mph 17.3 mph N/A   Clear
8:16 PM 28.4 °F 19.1 °F 6.8 °F 40% 30.31 in 10.0 mi NW 10.4 mph - N/A   Clear
8:35 PM 28.4 °F 18.0 °F 6.8 °F 40% 30.31 in 10.0 mi NW 12.7 mph - N/A   Clear
8:55 PM 28.4 °F 20.4 °F 6.8 °F 40% 30.32 in 10.0 mi NW 8.1 mph 18.4 mph N/A   Unknown
9:15 PM 28.4 °F 18.0 °F 6.8 °F 40% 30.33 in 10.0 mi NW 12.7 mph 18.4 mph N/A   Clear
9:36 PM 28.4 °F 19.7 °F 6.8 °F 40% 30.33 in 10.0 mi NW 9.2 mph 19.6 mph N/A   Clear
9:56 PM 28.4 °F 19.7 °F 6.8 °F 40% 30.34 in 10.0 mi NW 9.2 mph 16.1 mph N/A   Clear
10:16 PM 28.4 °F 18.0 °F 10.4 °F 47% 30.34 in 10.0 mi NW 12.7 mph 19.6 mph N/A   Clear
10:35 PM 28.4 °F 20.4 °F 10.4 °F 47% 30.36 in 10.0 mi NNW 8.1 mph - N/A   Clear
10:55 PM 28.4 °F 18.5 °F 10.4 °F 47% 30.35 in 10.0 mi NW 11.5 mph 16.1 mph N/A   Clear
11:15 PM 28.4 °F 22.2 °F 10.4 °F 47% 30.37 in 10.0 mi NNW 5.8 mph 9.2 mph N/A   Clear
11:35 PM 28.4 °F 22.2 °F 10.4 °F 47% 30.37 in 10.0 mi NW 5.8 mph 10.4 mph N/A   Clear
11:55 PM 26.6 °F 17.5 °F 10.4 °F 51% 30.37 in 10.0 mi NW 9.2 mph 16.1 mph N/A   Clear